Wind_Speed
16 16 16 16 15 13 10 8 7 7 9 11 11 12 12 13 13 12 11 10 10 11 14 18 20 23 25 27 29 29 30 30 35 41 42 36 27 22 25 27 25 24 20 11 8 10 9 9 10 8 8 13 18 16 13 15 14 8 5 5 4 1 2 1 1 1 2 2 5 8 10 9 6 12 14 5 9 15 12 14 15 13 15 16 16 17 21 24
12 12 14 17 17 16 14 11 8 7 7 8 10 10 11 12 12 11 10 8 8 9 12 14 15 15 16 18 20 24 29 33 42 46 39 29 27 27 25 26 26 23 21 15 10 8 7 9 10 6 11 19 18 16 15 16 19 11 4 5 3 2 1 2 2 1 1 1 3 4 7 8 6 10 13 6 9 16 13 15 17 17 19 18 18 21 23 27
13 13 13 16 16 17 17 15 13 9 8 8 9 9 10 10 10 10 9 7 5 5 8 9 8 6 7 9 11 15 21 34 45 41 33 28 29 29 25 25 25 22 21 20 15 10 9 12 10 9 21 24 18 19 19 15 15 9 5 5 1 5 4 2 3 3 3 3 1 3 5 5 6 9 10 6 8 12 10 13 16 19 23 22 22 25 27 30
16 15 14 14 15 15 16 16 15 13 10 9 8 8 8 9 9 9 8 5 3 2 1 1 1 3 6 9 10 8 13 29 39 33 27 26 26 27 25 22 22 20 18 19 18 15 15 15 14 18 27 21 18 23 19 12 9 6 5 6 5 7 4 3 4 4 4 4 2 2 3 3 6 7 7 6 4 6 8 11 13 17 21 22 25 27 28 30
18 16 15 14 15 15 15 15 16 15 13 10 10 9 9 10 11 13 12 8 4 2 2 3 4 6 7 8 8 8 5 13 22 26 26 25 23 23 23 21 19 17 16 17 18 19 18 18 22 26 24 13 15 18 12 12 13 8 5 7 8 6 4 3 4 4 5 5 3 2 3 3 5 5 5 5 2 2 8 11 12 14 17 21 24 26 27 29
20 19 18 17 17 17 17 18 18 17 16 14 13 12 12 12 13 15 17 18 17 16 16 17 18 17 16 17 12 8 10 6 15 24 25 25 23 20 20 19 17 14 14 16 18 20 21 24 27 24 18 12 13 11 9 11 9 7 4 5 6 4 5 4 2 2 3 6 5 3 3 4 5 4 5 5 1 2 8 10 12 15 16 19 22 24 26 29
22 21 21 20 20 20 20 20 20 20 18 16 15 14 14 13 13 15 17 21 23 26 28 29 29 27 29 30 26 30 32 17 17 22 22 24 22 20 18 15 15 12 13 18 19 21 26 31 32 23 16 13 12 11 16 20 16 11 4 3 6 6 6 3 1 1 3 5 6 5 5 6 5 3 5 7 3 3 8 10 13 15 16 18 20 22 25 26
22 22 21 21 21 20 20 20 20 20 18 17 17 17 16 15 15 16 17 18 18 21 21 19 15 12 15 20 26 37 36 23 20 20 20 21 20 20 17 15 17 15 17 22 20 21 25 27 24 18 13 9 8 8 11 17 18 12 4 3 6 5 5 4 4 4 5 5 6 8 9 8 4 4 6 7 4 4 8 10 12 15 17 18 20 22 24 24
21 21 21 21 20 20 20 20 21 20 20 21 21 22 22 21 20 18 18 16 15 13 10 7 10 11 10 12 24 31 26 20 19 20 19 19 19 17 15 19 23 20 22 24 21 23 25 24 19 15 15 11 10 7 4 6 8 7 6 5 6 6 7 8 10 10 6 6 9 11 13 8 3 4 5 6 5 5 9 10 13 16 18 19 20 22 23 23
19 19 19 19 18 18 19 19 20 21 22 23 23 23 22 22 22 21 21 19 18 15 14 15 13 13 11 15 28 22 15 17 16 17 19 19 19 18 18 22 22 22 25 25 25 23 21 23 22 21 21 16 14 14 12 9 5 8 12 11 10 10 10 11 15 17 8 6 13 10 10 7 2 2 3 6 6 6 9 10 14 17 18 19 19 20 21 22
17 17 17 16 16 16 17 18 19 21 22 22 21 21 21 21 20 20 20 19 19 17 16 20 22 18 13 24 35 20 13 17 16 17 17 16 19 21 24 24 21 23 24 26 28 24 18 15 13 14 14 14 15 16 17 13 10 11 11 9 8 9 13 15 15 20 10 4 16 11 5 6 3 2 4 9 8 7 10 10 14 17 17 17 17 18 19 20
16 16 15 14 14 14 15 15 16 17 17 17 18 17 17 18 18 19 18 15 16 18 15 13 18 19 21 34 36 21 16 17 14 16 15 14 18 20 23 24 22 22 20 24 27 24 22 14 8 10 8 9 7 8 11 9 8 7 6 4 6 5 10 15 14 20 10 3 17 12 3 6 4 2 7 14 10 8 9 10 14 16 15 16 16 17 17 19
16 16 15 13 12 12 13 14 13 14 14 16 16 16 15 14 14 13 13 13 13 17 20 19 17 13 19 30 27 17 15 15 11 10 11 13 15 16 20 22 23 23 21 24 24 19 20 16 16 22 18 12 6 6 8 4 4 2 4 4 4 5 6 11 14 21 10 4 19 10 2 6 6 3 8 15 11 7 9 10 13 15 15 16 16 16 16 18
18 17 16 14 12 11 12 12 12 12 13 14 14 14 13 12 12 12 13 16 14 14 14 16 20 20 24 24 20 17 13 12 10 8 11 11 11 13 17 18 20 22 23 25 25 19 15 13 18 24 21 15 11 9 6 5 4 1 3 3 3 3 5 8 12 19 11 8 20 9 3 5 7 5 11 14 9 5 9 10 12 14 14 16 16 16 16 17
19 18 17 15 13 12 12 12 12 11 11 11 11 11 9 8 8 11 14 16 16 16 13 11 14 21 28 21 16 18 12 11 12 13 15 12 9 10 11 12 14 17 18 20 21 20 17 17 21 20 14 11 9 6 3 4 5 3 3 3 4 3 4 7 7 15 10 8 17 10 2 4 6 7 13 12 7 4 7 9 11 13 14 16 17 15 16 17
18 17 16 15 14 14 14 14 13 12 11 9 8 7 6 5 6 9 12 14 16 13 12 16 16 19 22 14 13 19 18 16 16 14 14 15 12 9 8 8 7 10 11 12 13 13 16 21 25 24 18 10 4 4 4 4 4 4 4 1 3 4 4 6 3 11 13 7 10 9 1 2 5 10 14 8 6 4 6 8 10 12 14 15 16 15 16 17
17 17 15 15 15 15 14 15 16 17 17 15 13 10 7 5 6 9 9 11 14 13 13 14 15 21 20 12 12 20 23 21 18 13 12 15 14 10 8 7 8 9 7 8 9 9 14 17 15 15 16 11 4 3 5 5 5 4 4 2 2 2 2 5 3 10 17 7 5 7 1 2 7 11 12 6 4 3 5 8 9 11 13 14 15 14 16 17
15 15 13 12 14 16 17 18 19 18 18 18 19 20 18 13 6 3 4 2 4 10 15 14 11 12 13 16 15 16 21 22 19 15 10 12 14 11 8 7 7 7 7 10 12 14 14 11 6 3 6 9 7 7 5 2 1 3 3 2 3 3 2 3 3 7 15 7 4 8 3 4 9 10 12 6 3 3 4 8 9 11 12 13 14 13 15 16
13 13 12 10 10 13 16 14 12 11 11 10 11 16 20 23 21 18 19 16 13 11 9 15 17 8 3 17 16 11 18 22 20 16 9 7 12 12 10 9 8 7 8 8 12 17 12 5 4 3 5 8 7 5 1 1 2 4 2 1 1 3 3 4 4 4 10 5 5 7 3 6 8 9 11 7 3 4 6 8 9 11 12 13 13 12 14 15
10 11 11 10 8 8 8 5 5 8 11 7 3 5 7 14 19 23 33 35 30 23 13 14 18 12 7 18 20 12 15 20 21 19 12 6 7 9 11 10 12 15 11 2 4 9 7 6 7 5 5 6 4 2 2 1 1 3 2 2 3 2 3 4 4 4 8 4 2 5 4 6 6 7 10 8 5 6 7 8 10 12 12 12 13 12 13 14
8 9 9 10 7 6 5 4 4 6 10 8 6 8 7 8 10 13 25 31 27 26 23 21 18 15 12 18 24 18 14 18 21 21 18 11 5 6 11 12 11 12 9 3 1 4 5 9 6 2 3 5 4 2 2 2 2 3 2 3 2 1 3 4 2 5 9 3 2 6 5 5 6 6 8 8 6 7 8 10 12 13 12 12 12 12 13 13
7 8 9 9 7 6 4 3 2 4 7 9 12 18 19 19 19 18 19 19 20 22 22 23 22 19 14 13 20 22 21 21 22 24 22 17 13 9 12 16 10 6 8 4 2 4 7 9 4 4 1 2 2 3 2 4 3 1 1 2 1 3 4 4 2 4 7 3 3 7 5 5 6 6 7 7 7 8 10 11 12 13 11 11 12 13 14 15
7 8 8 7 7 6 4 2 2 3 6 6 10 18 22 22 20 18 17 14 15 19 18 20 23 23 19 13 13 20 26 23 21 26 25 20 18 14 12 12 7 4 8 7 5 5 7 4 6 4 2 4 3 6 4 4 2 1 1 2 1 3 3 2 3 6 6 2 2 4 2 4 6 5 5 6 8 9 10 10 10 10 10 11 12 13 14 16
7 8 7 7 7 6 5 5 4 4 5 4 7 13 17 17 14 11 12 10 8 13 17 17 20 23 22 18 13 12 20 21 20 26 25 20 15 11 9 7 5 5 5 6 9 10 5 2 7 4 3 5 3 6 6 4 3 2 1 4 1 4 2 4 4 7 5 0 2 3 3 4 5 5 5 7 10 11 13 13 13 12 10 11 13 14 15 16
7 8 8 8 7 6 6 6 7 6 4 4 8 11 11 7 5 4 6 7 4 9 14 12 14 19 21 22 15 4 9 17 22 25 22 20 14 6 6 6 5 4 2 1 9 8 4 3 5 4 4 5 4 3 4 3 3 4 2 4 2 3 5 6 5 6 3 2 4 5 4 4 4 4 5 6 8 9 12 15 15 16 14 13 14 15 17 18
7 7 7 7 7 8 7 6 7 5 3 3 7 8 4 3 2 2 3 5 4 8 11 10 10 14 18 22 17 2 3 10 17 25 21 17 15 6 5 5 4 3 2 3 5 4 2 4 4 4 4 4 5 3 1 2 3 3 1 3 1 3 4 3 3 1 3 1 3 4 4 2 4 4 5 5 5 7 9 14 16 17 15 14 14 15 17 18
6 6 7 8 8 9 7 6 6 4 2 2 4 6 4 3 1 2 1 5 4 5 8 8 7 11 13 19 19 6 1 8 10 22 23 15 13 9 5 4 4 4 1 3 4 2 2 6 7 6 5 5 6 3 2 2 3 2 1 1 2 2 3 0 2 2 1 1 3 5 4 2 3 4 6 5 5 6 8 10 15 17 15 14 14 15 16 17
6 6 6 7 7 7 7 6 5 3 2 1 2 3 3 1 2 2 3 5 4 5 5 6 6 10 9 12 20 13 5 9 6 15 23 15 11 11 8 3 3 2 2 3 3 1 2 5 5 5 6 5 3 3 3 2 1 3 1 1 2 1 3 2 3 2 1 2 3 6 4 2 3 5 5 4 4 6 7 7 11 15 15 15 16 15 16 16
6 6 6 6 7 7 7 7 5 2 2 1 2 2 2 2 3 1 5 3 3 3 3 6 5 10 10 6 15 16 10 12 8 11 20 19 12 9 7 4 3 2 6 7 5 2 2 2 1 1 4 4 3 6 3 4 2 3 3 4 3 4 3 3 3 1 2 4 2 5 3 2 4 5 4 4 4 5 6 6 10 14 15 16 17 16 16 17
6 6 6 6 6 7 7 7 6 3 1 2 3 4 4 4 4 4 4 0 2 3 4 6 4 10 14 6 9 15 10 10 12 12 18 22 19 14 9 5 5 3 5 9 5 1 1 0 1 2 2 5 6 7 4 6 3 1 5 4 3 3 4 3 2 2 4 3 4 5 1 2 1 4 3 1 2 3 4 5 9 13 16 17 17 17 17 19
6 6 6 7 7 8 8 7 7 4 1 3 5 6 6 2 4 7 3 1 2 3 4 5 3 6 9 4 4 11 7 7 13 13 12 15 18 19 12 5 6 5 4 6 5 3 3 2 2 2 4 8 5 3 2 5 3 2 3 3 2 2 3 3 5 4 4 3 5 4 1 2 1 4 4 3 4 4 5 5 6 11 16 17 17 18 17 19
6 6 7 8 8 9 9 9 9 5 1 4 6 6 4 3 4 3 1 3 2 2 2 2 3 4 4 3 2 6 4 4 10 9 4 5 8 11 10 4 4 4 4 5 4 4 2 1 5 4 4 9 6 2 3 1 2 4 3 4 3 2 4 2 3 3 0 4 2 2 2 0 3 6 4 5 6 6 7 7 7 10 13 15 17 18 18 18
6 7 8 9 9 10 10 10 11 6 1 4 7 5 5 5 2 1 2 2 1 2 1 1 4 3 3 4 4 5 3 2 7 7 3 4 5 4 5 6 5 2 2 3 3 5 3 3 7 3 3 10 8 3 4 4 6 6 4 4 3 3 4 2 3 2 2 5 2 2 2 2 3 4 4 5 6 5 5 6 7 8 10 12 17 18 17 17
6 7 8 9 10 11 11 11 11 7 2 5 6 4 7 4 1 1 2 3 1 2 2 1 4 4 4 4 3 4 3 2 5 7 5 5 5 3 4 8 9 3 1 2 2 3 3 4 6 3 3 8 6 3 1 1 3 3 1 3 3 3 2 2 3 1 3 5 5 3 1 1 2 2 4 6 7 4 3 4 3 5 8 13 17 17 16 18
5 6 8 9 10 10 11 11 10 7 2 5 5 6 5 2 3 2 2 4 1 1 1 2 3 5 4 4 3 2 2 2 4 5 5 4 2 3 3 4 8 5 2 3 1 1 2 3 4 2 3 4 4 1 0 2 1 1 2 3 2 2 3 1 2 3 1 3 4 3 2 4 3 3 4 5 5 4 3 2 1 6 13 18 18 16 16 17
5 5 6 8 10 10 11 10 9 7 2 4 6 6 2 3 3 3 2 1 1 1 0 2 4 5 3 4 4 4 2 2 3 4 4 3 1 1 2 2 4 5 3 2 1 2 2 3 4 3 3 4 5 3 2 3 1 1 3 2 1 3 5 4 1 0 4 2 4 2 3 5 3 3 4 5 3 4 4 3 3 7 15 21 20 16 15 15
5 6 6 8 10 10 10 10 8 6 1 4 6 2 3 2 2 2 1 2 2 2 3 1 2 3 1 2 3 5 4 2 3 4 2 2 1 1 2 1 2 4 3 2 1 0 1 3 4 2 1 3 5 3 4 5 2 1 2 0 1 2 4 4 1 3 5 1 4 3 3 5 3 2 4 5 4 6 6 7 8 9 13 19 21 17 14 13
6 6 6 8 10 11 10 9 8 4 3 6 6 2 2 1 2 2 1 2 2 2 4 3 0 1 2 0 2 5 4 3 3 4 2 1 2 1 1 1 2 4 4 2 1 0 1 2 5 1 1 5 6 2 2 6 6 5 5 3 2 2 2 2 2 2 3 3 5 5 4 3 2 3 3 4 5 6 7 7 9 11 11 17 21 18 14 13
7 6 5 8 10 10 10 9 6 4 5 6 3 2 1 1 2 2 2 1 1 2 3 3 1 2 2 2 1 3 2 3 3 3 2 1 2 0 0 0 1 3 5 3 2 0 1 1 3 3 1 4 5 3 0 4 5 5 4 1 2 3 2 1 1 2 0 1 3 5 5 3 5 5 4 6 7 6 6 5 8 11 12 17 21 19 16 13
7 5 4 8 10 10 10 7 5 5 5 4 3 2 1 1 2 3 3 1 1 1 1 2 2 2 2 2 1 1 2 2 1 1 1 1 1 1 1 1 1 3 4 3 2 0 2 2 3 4 3 3 2 1 1 2 1 2 3 3 3 2 1 1 1 1 3 2 1 2 5 6 6 4 5 7 7 6 7 7 10 12 13 18 20 18 16 14
6 4 5 8 10 10 8 7 9 8 5 3 2 1 1 2 3 3 2 2 2 2 2 3 3 3 2 1 0 1 1 2 2 1 0 0 1 0 2 2 1 3 2 2 3 2 1 1 2 4 4 2 1 1 0 2 3 1 1 2 1 1 2 2 2 3 1 2 3 2 3 8 6 3 5 7 6 6 6 8 10 12 15 19 19 16 15 14
4 2 5 8 8 8 6 6 9 7 4 3 3 2 2 2 3 3 3 2 2 2 3 3 2 2 3 2 1 1 1 1 1 1 0 1 1 1 0 2 2 2 2 1 1 0 1 2 0 4 3 2 3 2 1 1 2 3 1 1 3 2 3 4 2 3 0 0 1 3 2 8 6 3 5 7 6 6 6 7 11 14 18 20 19 17 15 14
4 3 5 7 6 5 5 5 5 5 3 3 4 4 3 3 2 2 2 1 1 1 2 2 2 2 1 1 2 2 1 1 1 0 1 2 2 1 1 1 1 2 2 0 1 0 1 3 2 4 3 3 4 2 1 2 2 2 1 1 3 1 2 4 4 2 1 2 2 3 2 7 6 3 5 7 7 8 9 9 12 17 21 21 20 18 16 15
3 3 4 5 5 3 2 3 2 1 1 2 4 4 3 3 2 2 1 1 1 1 2 1 1 3 2 2 3 2 0 1 1 1 0 2 2 2 1 0 2 2 2 1 1 1 1 1 2 3 5 6 6 5 4 4 1 2 2 1 2 3 5 4 2 2 1 4 6 4 4 7 5 3 3 5 7 10 14 14 16 19 22 23 22 20 17 15
2 2 3 5 6 2 3 4 5 5 2 2 4 2 2 3 3 2 2 2 2 2 2 2 2 4 4 3 3 2 2 2 1 1 1 1 2 2 1 1 2 2 3 2 2 2 1 1 2 3 2 2 4 4 4 3 2 1 1 2 2 4 6 3 1 2 2 4 5 5 6 6 7 6 4 5 7 10 17 20 20 20 22 24 24 22 19 16
1 1 2 5 7 6 8 7 8 9 6 4 4 1 1 2 1 1 3 2 2 3 3 3 4 4 3 2 3 2 2 2 1 1 0 2 2 1 1 1 0 1 3 2 2 2 2 1 3 4 4 4 5 6 2 2 2 4 3 3 4 4 5 4 3 3 4 3 3 8 9 8 15 13 7 6 7 9 15 20 21 24 25 24 24 23 20 17
1 1 2 3 5 7 10 7 7 8 7 6 4 2 3 2 1 1 2 0 1 2 2 2 2 3 2 2 2 1 1 2 2 0 2 3 2 1 2 3 2 1 2 1 1 2 3 1 3 4 7 8 7 9 5 2 5 9 7 5 7 6 5 6 5 6 4 3 4 8 5 6 14 15 9 10 10 10 15 21 24 28 27 24 23 23 20 18
1 0 0 1 1 2 5 4 5 10 9 5 2 3 4 3 1 2 2 1 1 3 1 1 2 4 4 5 3 1 1 2 2 2 2 2 1 2 1 2 2 2 2 2 0 2 4 2 3 3 7 10 10 12 10 5 8 10 9 9 8 8 9 11 12 8 8 7 9 5 3 7 14 15 12 16 16 16 22 28 29 29 27 24 24 23 21 21
2 3 3 3 2 3 4 4 8 12 10 5 2 2 4 5 5 3 2 3 1 2 3 2 5 5 6 5 3 2 2 0 2 3 2 1 1 0 0 1 2 2 2 2 1 2 3 2 3 2 6 11 11 13 10 6 7 9 11 12 11 10 12 13 13 9 10 14 16 12 11 15 18 18 19 26 29 26 29 31 29 27 26 25 24 23 23 24
2 2 3 4 5 7 7 7 9 9 5 3 2 2 4 6 6 4 4 5 1 1 4 4 3 3 6 5 4 2 5 4 0 2 4 3 1 2 2 2 3 2 1 1 1 1 1 2 1 2 4 9 6 4 4 5 7 11 13 11 10 10 10 12 13 9 9 15 17 15 14 16 22 25 25 30 33 26 25 27 27 26 25 24 24 24 24 26
2 2 4 5 5 5 4 4 5 4 2 1 2 4 4 6 8 7 4 5 5 4 6 8 4 5 4 3 3 5 5 3 1 1 4 4 2 3 2 2 4 4 1 1 1 1 2 2 2 4 4 7 2 3 5 8 8 11 15 13 11 10 8 8 9 8 10 12 9 7 8 11 18 19 16 20 25 21 22 26 26 25 24 23 24 25 26 27
3 4 6 5 2 2 3 2 3 3 2 3 4 6 5 5 9 11 4 3 6 5 4 8 8 6 3 2 6 7 5 3 2 2 3 4 4 3 2 2 5 5 3 3 1 0 2 1 1 3 2 6 4 5 9 10 6 5 8 7 10 10 7 6 6 9 12 10 5 5 9 9 10 10 8 12 18 19 23 26 24 25 26 26 26 26 26 26
Wind_Direction
91 84 75 67 65 68 71 75 84 86 82 83 87 88 87 87 89 95 99 97 99 102 101 99 92 84 76 70 65 59 59 62 64 63 55 40 28 23 19 19 20 22 28 45 82 84 82 75 70 82 91 76 64 55 51 44 39 53 70 66 78 57 42 113 211 155 170 281 336 6 21 22 5 5 13 9 8 15 19 20 17 12 5 357 351 347 344 340
94 90 78 67 64 65 67 70 81 96 98 94 92 90 89 89 83 77 78 82 96 105 108 107 97 85 73 64 57 52 47 50 61 59 48 39 34 31 27 25 24 24 28 42 73 85 82 71 69 93 90 72 57 60 68 51 46 57 95 78 93 177 143 157 170 164 127 337 322 14 25 28 19 353 8 12 348 5 12 3 2 358 358 359 354 350 347 345
93 95 85 72 67 68 70 71 77 92 107 107 101 95 92 86 72 61 59 64 78 100 112 111 101 78 54 37 26 33 28 42 52 43 34 38 36 32 32 31 28 27 30 43 61 73 84 87 88 96 85 71 56 70 69 50 47 47 78 82 165 189 156 146 113 100 77 26 351 27 20 27 22 359 9 4 333 357 7 354 351 347 350 354 353 351 349 347
92 93 87 74 70 71 71 72 76 87 100 108 105 97 92 78 61 49 39 39 52 78 122 144 193 313 316 311 323 341 11 40 39 22 24 34 34 33 31 32 33 33 39 52 64 77 90 99 106 95 85 70 54 68 56 37 65 42 61 111 166 174 141 127 111 74 49 32 33 25 15 14 8 359 4 9 350 347 351 351 344 338 343 348 349 350 347 345
89 88 81 73 71 71 70 74 79 85 92 98 96 90 83 74 64 56 51 54 53 30 338 313 303 310 312 319 315 288 324 35 20 14 28 28 28 30 27 32 35 40 53 65 75 87 99 104 102 87 77 60 45 62 46 45 85 70 60 122 140 156 141 136 130 71 42 35 35 29 29 354 343 344 345 7 70 313 333 345 343 342 344 346 348 347 343 343
84 80 76 73 71 70 73 79 83 85 88 88 86 83 81 79 74 65 65 74 80 80 74 70 71 72 74 68 64 83 90 63 4 18 29 26 28 25 23 31 38 47 58 71 80 86 91 90 89 78 69 63 46 55 48 47 89 95 70 110 116 121 120 132 134 73 28 31 35 20 5 330 324 332 328 327 291 296 331 344 348 349 347 345 345 343 343 345
79 76 74 72 71 72 75 80 83 83 83 82 82 81 81 82 77 72 74 82 85 84 82 82 79 77 81 81 81 79 72 53 18 25 29 28 31 30 28 30 42 51 56 63 68 76 78 78 80 77 77 72 54 64 67 64 77 95 100 94 90 91 95 93 43 6 331 2 13 358 336 322 325 323 323 327 326 322 332 345 351 349 345 345 344 343 345 347
75 74 73 71 71 72 74 79 81 82 84 84 84 83 82 80 80 79 77 80 84 88 92 89 69 51 75 83 78 66 50 27 21 29 29 28 29 33 38 42 46 49 56 56 58 71 72 73 76 73 73 66 71 82 74 69 60 64 101 110 89 79 64 39 7 342 326 334 340 342 334 326 320 295 307 334 345 323 331 345 350 348 345 346 346 345 346 347
75 74 73 72 72 75 81 87 89 90 89 88 86 83 81 80 80 80 78 79 82 89 89 64 26 37 81 93 76 60 30 11 20 26 29 32 32 31 41 50 47 48 58 58 56 65 68 70 73 80 87 77 77 67 41 73 45 44 95 101 83 60 47 36 23 9 350 353 350 340 342 350 349 307 316 349 344 315 330 344 347 346 346 347 347 346 345 348
75 74 73 74 76 80 86 91 94 94 91 87 85 82 83 82 83 83 83 84 84 87 77 69 63 68 90 84 76 64 13 16 23 23 32 37 41 42 46 50 48 48 55 57 53 57 72 80 78 84 87 76 66 55 52 78 100 100 97 90 79 68 48 34 27 18 13 18 6 347 341 357 31 360 336 342 334 318 330 339 345 344 344 347 346 345 346 348
75 74 74 74 77 81 84 87 91 93 90 86 83 82 85 85 87 86 84 84 84 85 80 77 76 76 86 72 67 59 14 24 21 21 30 36 45 45 46 48 47 47 50 56 53 51 65 83 90 86 78 76 72 64 71 86 110 109 103 89 58 66 49 32 25 11 11 27 5 355 339 354 15 31 356 345 329 314 329 331 339 342 341 345 344 345 346 348
74 71 69 68 72 77 80 85 88 91 88 83 81 82 84 85 85 83 82 81 72 68 65 68 71 73 77 64 55 44 26 26 20 18 22 33 42 41 45 48 48 49 47 55 56 49 54 60 84 95 94 105 90 69 86 96 107 92 90 96 1 30 41 24 18 4 7 27 356 355 1 351 330 347 10 0 341 309 323 324 333 340 340 343 345 347 346 348
72 66 63 61 64 69 74 79 83 88 87 85 83 80 80 78 76 78 76 69 60 61 61 63 66 68 72 60 47 41 34 30 32 26 21 31 38 42 51 53 54 56 53 57 59 54 58 60 75 90 95 100 97 96 106 91 99 61 39 86 7 9 14 10 13 3 13 22 352 356 75 333 294 306 2 355 347 317 319 323 331 338 341 345 350 351 348 349
70 64 59 54 57 64 69 72 76 81 85 85 82 77 76 73 74 76 71 63 57 54 50 58 63 65 74 69 48 43 39 35 47 51 42 38 40 48 57 61 62 64 62 63 66 66 73 79 80 85 83 85 101 110 102 44 57 52 359 40 28 31 343 352 15 13 20 353 353 17 121 326 290 328 358 346 348 329 318 324 330 338 345 350 355 354 350 350
69 62 56 52 55 63 65 67 68 71 78 75 69 68 69 76 79 73 68 63 59 55 52 62 64 66 71 66 43 40 45 48 47 46 43 40 49 58 61 65 68 68 66 69 73 73 75 80 75 68 62 80 104 95 48 15 31 31 25 4 360 31 321 328 19 29 22 320 357 39 116 312 284 330 356 349 356 345 320 325 330 341 350 354 358 356 351 352
65 59 57 53 54 65 68 64 62 63 63 55 53 59 64 81 86 80 76 64 60 57 56 63 63 67 66 48 29 35 39 40 35 34 35 35 42 52 55 56 65 64 62 71 76 69 63 67 65 54 47 56 71 63 52 25 10 15 51 55 328 6 340 333 5 25 13 326 3 39 124 281 285 328 354 359 5 353 318 325 332 343 352 357 359 355 353 355
60 57 58 56 58 68 73 72 74 73 68 63 63 70 77 92 101 96 83 61 59 56 56 66 66 68 61 31 21 28 30 32 29 31 37 36 39 51 63 64 75 72 69 77 67 54 53 59 63 51 47 49 28 67 68 24 357 345 26 55 311 327 319 337 316 355 8 13 6 10 116 231 281 320 354 6 4 348 311 323 332 343 354 360 359 356 356 357
56 54 59 64 68 75 86 90 87 77 69 68 68 69 71 76 92 95 63 34 53 56 56 54 57 73 51 20 19 19 24 31 29 32 36 41 47 56 72 75 83 88 76 68 44 37 46 53 79 92 44 38 26 46 67 40 324 286 347 12 321 319 281 313 297 343 4 19 14 6 13 303 299 324 355 4 356 333 309 319 328 340 352 359 0 359 357 358
50 51 59 71 78 85 97 99 84 63 55 68 74 71 72 76 79 73 70 74 69 64 54 41 50 97 47 17 24 22 31 36 31 33 39 54 56 56 68 71 80 87 68 56 29 32 43 49 69 63 15 10 9 37 94 217 206 214 216 164 260 313 291 280 269 334 1 359 5 9 335 299 305 321 344 354 340 321 311 315 325 336 349 357 1 0 358 0
44 49 59 71 85 93 101 98 73 47 34 37 70 90 85 75 72 63 64 68 67 68 72 58 61 84 65 29 32 37 42 40 35 35 36 47 60 55 59 65 72 64 50 30 2 18 36 51 50 39 353 324 308 260 227 282 195 176 149 166 205 262 296 291 268 326 356 358 337 347 310 288 292 297 326 344 334 321 316 316 327 337 348 355 359 2 2 3
42 49 54 62 77 86 91 100 88 39 26 37 84 107 102 79 84 76 69 69 66 64 61 57 58 58 49 33 32 35 40 44 41 39 35 35 60 54 43 48 60 46 15 327 351 346 35 53 39 340 295 277 291 282 182 108 125 147 152 213 223 284 297 295 249 320 350 14 312 352 355 309 305 298 317 341 331 325 327 319 327 336 347 355 357 2 4 6
41 44 47 49 59 72 84 98 68 17 43 71 93 97 95 91 96 97 88 79 64 58 52 49 49 45 41 34 31 31 35 38 33 32 32 37 57 65 50 51 57 29 352 357 35 5 47 49 350 310 287 209 20 10 114 111 121 146 258 217 6 339 312 306 284 325 351 29 331 357 12 311 309 297 305 343 337 330 334 323 326 330 339 355 358 1 3 5
39 40 43 43 50 57 58 56 17 40 73 93 99 98 99 96 96 90 88 90 66 50 41 40 39 34 32 28 19 28 39 38 17 16 21 30 49 58 56 55 56 36 10 23 62 53 59 31 333 349 99 131 43 7 45 73 79 84 22 72 21 333 354 310 301 335 346 32 317 338 1 301 323 320 310 351 353 355 3 355 354 346 340 353 358 358 358 0
39 40 42 40 45 46 45 52 49 67 91 118 121 116 110 97 92 90 83 91 76 40 31 32 28 26 24 16 7 23 43 41 19 12 15 22 37 46 51 54 57 53 8 27 69 79 94 320 331 356 58 106 92 7 33 45 5 334 66 103 96 323 314 241 282 337 335 323 325 6 33 315 335 351 321 344 1 11 20 23 26 18 5 4 8 9 6 2
41 42 41 38 42 37 37 44 48 67 93 119 141 139 125 88 61 81 80 86 70 13 16 21 20 20 15 9 7 24 53 41 24 12 13 24 29 46 58 43 46 48 286 33 69 82 90 340 344 14 28 69 99 35 34 55 4 321 266 138 126 305 278 265 307 346 12 33 357 37 56 299 313 344 309 331 355 353 8 19 23 21 21 19 16 17 16 10
39 38 37 36 36 29 28 29 34 51 76 121 168 174 177 302 354 91 78 72 38 343 360 12 12 13 10 7 6 51 78 28 20 14 16 25 26 53 67 22 45 61 221 161 86 86 63 7 30 63 42 43 63 60 181 101 46 348 334 117 77 299 260 282 325 22 79 36 334 43 105 255 313 329 299 319 331 323 353 9 10 14 18 16 14 14 13 9
32 32 30 30 29 23 23 20 19 27 60 127 186 204 227 271 163 151 26 48 23 334 353 4 3 6 9 10 16 71 73 342 5 16 18 27 28 54 72 5 46 41 299 147 71 32 358 5 16 32 41 44 40 10 267 86 62 318 8 54 322 279 205 198 53 89 86 285 331 19 88 147 292 283 279 307 332 334 352 353 353 2 7 8 10 12 10 6
29 27 25 24 22 18 18 16 10 18 35 157 188 194 215 242 177 184 78 72 348 334 356 351 357 4 7 23 33 62 54 360 18 11 16 32 33 52 74 68 110 49 4 113 108 8 15 10 2 6 20 31 27 309 284 107 40 276 192 61 296 150 141 112 81 81 8 39 348 336 32 78 275 275 296 338 15 347 338 328 327 342 354 1 5 5 4 2
31 26 24 21 18 17 19 18 16 20 19 186 166 162 178 124 154 107 77 103 317 340 353 347 352 354 358 30 36 42 42 30 33 6 21 40 36 52 82 72 102 93 32 68 124 176 41 25 334 42 30 5 286 283 251 158 283 286 120 81 56 70 66 71 74 96 48 46 315 295 4 60 274 286 314 2 25 321 309 300 304 331 352 358 360 359 356 356
24 20 19 16 15 15 15 18 23 33 48 154 162 149 131 110 105 67 55 164 329 334 324 355 353 344 357 23 24 19 30 32 17 10 30 41 42 55 84 74 53 70 35 46 79 164 320 30 6 76 26 311 285 290 246 188 238 20 96 58 47 41 32 50 31 79 68 360 255 245 341 91 295 292 267 296 327 267 274 289 305 338 355 355 357 358 355 354
18 14 11 10 10 10 12 15 15 21 89 151 160 147 133 94 71 88 91 254 319 332 342 11 355 355 14 52 15 356 7 20 11 17 25 28 35 40 48 41 16 32 31 20 29 356 355 41 355 346 340 329 313 307 263 198 206 98 103 73 88 355 9 34 350 33 70 308 255 226 284 99 189 275 254 254 272 243 228 250 288 327 344 351 356 355 351 350
16 12 8 10 8 4 9 11 9 15 104 156 164 161 137 40 29 94 248 307 326 330 1 353 328 5 17 40 24 346 352 3 6 26 27 10 35 35 36 35 344 9 13 356 2 352 350 331 326 318 354 1 360 352 352 322 360 26 43 56 74 357 7 31 332 2 148 271 243 194 299 341 218 250 260 266 279 261 235 242 274 311 333 349 355 353 349 347
12 11 11 10 6 3 6 6 6 15 85 151 162 159 91 70 51 203 265 323 11 337 357 295 317 347 360 18 11 341 2 357 350 11 17 32 52 36 35 37 16 8 345 350 3 357 340 296 337 357 6 9 26 48 6 337 349 4 17 41 66 65 36 335 294 340 293 282 272 230 277 309 281 268 228 236 275 276 254 268 295 320 338 348 354 355 352 352
6 11 11 5 2 360 3 3 4 14 77 140 145 103 62 75 181 190 260 266 264 354 3 335 330 357 35 43 349 325 27 30 356 11 7 27 46 13 3 14 14 30 115 48 37 19 16 307 337 24 341 354 29 78 85 233 337 340 177 101 88 116 89 293 264 260 292 293 296 296 274 207 280 276 210 240 281 280 270 295 319 351 356 356 357 357 355 357
3 8 7 2 358 356 0 1 0 15 100 145 105 66 76 152 218 171 222 247 250 343 331 16 37 36 17 354 329 355 55 344 1 35 22 28 57 9 354 341 356 16 80 54 15 15 50 274 288 346 331 356 23 357 133 126 7 293 158 86 59 156 127 103 190 187 227 316 299 295 243 212 235 266 264 292 290 243 236 285 343 4 4 5 358 353 356 359
353 354 358 356 354 355 1 359 359 15 125 151 73 57 139 194 204 170 174 189 130 150 217 355 40 57 2 320 336 8 35 320 358 40 26 29 112 359 4 288 339 13 51 77 33 353 15 282 287 351 2 34 34 349 17 44 329 336 55 37 241 164 120 105 193 334 61 29 284 301 292 289 323 310 308 347 326 248 247 265 297 341 358 2 353 346 352 355
342 339 344 348 351 355 358 358 8 18 74 120 81 88 201 197 187 187 129 101 152 125 100 63 9 53 356 309 325 330 339 325 4 42 33 11 49 359 10 341 353 20 34 89 138 37 359 284 303 9 24 3 15 7 27 38 35 46 59 173 189 95 82 98 87 352 35 9 284 326 302 296 342 325 307 335 305 273 270 269 286 312 342 350 344 341 344 347
339 333 331 341 350 353 355 1 9 16 61 78 81 137 182 158 195 198 131 110 143 88 87 124 167 71 185 166 324 309 338 358 9 41 37 360 40 73 22 18 28 27 16 37 89 27 42 298 308 335 206 328 357 35 360 12 39 78 120 157 109 75 12 29 63 18 13 328 298 313 304 270 232 233 282 277 247 260 279 280 285 293 318 336 336 337 338 340
334 326 326 342 349 353 357 0 356 3 61 76 106 175 155 155 164 149 145 119 113 87 92 157 156 68 157 156 318 297 351 26 27 43 51 36 32 338 14 24 10 13 6 30 91 266 57 43 294 289 271 320 356 61 14 329 13 61 91 21 24 109 142 4 72 133 139 309 300 319 330 284 232 218 211 232 236 245 268 283 281 279 299 322 329 335 336 335
330 320 324 340 349 355 354 359 13 35 65 89 155 171 88 151 147 130 142 117 78 91 109 176 147 100 180 203 251 318 19 44 63 58 43 46 33 336 34 82 302 352 3 45 81 16 33 73 263 293 340 343 348 51 157 219 312 9 34 17 5 32 65 66 30 109 126 139 212 316 316 278 250 206 192 226 244 238 241 258 269 277 299 318 329 337 336 333
329 326 331 340 351 354 353 18 39 50 82 101 119 118 62 120 131 121 127 116 76 76 110 144 133 131 161 162 210 220 44 39 41 46 328 260 120 9 34 93 76 357 8 45 44 25 35 97 234 293 337 351 260 295 235 198 201 177 114 123 128 33 58 80 329 318 94 138 173 163 287 276 264 210 205 229 246 254 262 262 265 285 308 320 332 340 337 334
331 334 338 341 348 353 5 44 42 45 95 92 68 89 89 101 120 117 114 108 87 77 92 107 88 98 132 112 108 167 111 68 43 55 220 231 198 198 78 86 87 55 74 55 357 358 128 96 356 275 273 261 278 319 39 193 175 140 148 162 137 111 103 119 223 267 281 105 145 116 269 271 267 239 237 249 254 268 279 262 268 296 313 322 332 337 337 335
327 315 326 335 341 356 31 63 38 26 62 84 81 95 95 89 112 132 124 83 89 89 76 79 64 72 119 137 110 139 151 162 183 182 234 238 256 250 198 59 39 72 91 39 298 234 88 65 7 295 294 316 317 326 37 43 83 126 224 165 141 141 123 145 175 180 186 215 152 100 263 265 278 287 263 262 265 269 270 267 282 300 312 322 328 330 332 332
337 330 332 347 335 326 59 108 110 55 46 80 80 77 76 74 76 103 144 110 78 99 89 89 89 87 98 98 99 120 62 120 191 286 186 200 269 311 244 304 2 55 80 75 111 134 254 40 46 349 343 346 345 349 346 348 13 204 230 175 143 105 99 120 136 74 300 222 161 145 247 253 267 300 286 276 281 280 276 283 296 302 309 319 325 327 328 325
335 323 341 9 356 346 110 130 140 137 148 107 92 80 64 74 65 62 104 120 91 87 95 91 107 106 99 86 79 65 33 51 151 328 10 233 258 293 239 265 325 56 84 91 104 129 199 213 122 92 48 334 312 313 312 310 283 235 204 185 180 135 133 153 92 77 255 236 158 174 232 260 279 288 292 287 284 283 284 292 302 305 309 316 321 325 326 320
17 359 347 10 15 48 87 106 125 131 150 144 112 121 92 88 71 68 91 101 87 94 95 97 117 111 87 85 81 46 355 1 32 93 238 250 262 282 239 237 283 100 101 88 73 95 101 228 205 178 191 220 245 259 265 41 309 271 252 212 197 176 149 126 107 168 201 190 202 228 239 277 289 284 286 291 278 272 283 293 303 310 314 317 319 323 323 321
89 57 351 5 18 53 76 83 105 122 146 153 133 158 153 117 10 92 118 118 105 125 95 76 139 155 150 154 130 73 288 333 1 128 210 238 271 317 247 210 180 175 159 118 35 88 90 304 249 205 231 249 261 270 284 358 281 265 262 236 204 189 165 157 195 207 152 126 255 253 220 240 272 279 289 294 289 285 288 294 301 308 312 313 315 318 319 320
103 181 48 84 30 57 72 63 104 114 114 117 119 141 140 133 150 170 178 148 142 176 146 8 259 216 185 169 145 135 228 343 331 224 206 243 276 355 340 212 197 207 182 144 49 97 111 248 246 200 255 267 269 273 276 274 262 258 256 250 230 203 191 204 222 203 158 204 249 256 173 232 266 281 287 283 283 288 292 296 299 302 304 308 311 312 313 317
97 116 119 115 109 113 105 111 129 120 102 79 88 135 155 170 187 198 162 113 43 238 179 235 268 227 191 174 119 115 187 181 315 260 208 173 233 256 359 244 198 194 166 131 63 73 120 243 245 194 276 273 262 264 263 248 260 264 250 241 235 222 210 218 234 215 198 236 254 262 270 274 274 273 274 277 282 286 288 292 295 296 299 304 307 307 307 312
135 129 137 125 97 91 102 119 129 120 88 59 102 167 170 172 186 198 169 157 166 215 181 211 257 183 172 168 135 182 217 187 190 274 184 158 262 226 206 220 164 138 107 120 63 57 146 265 272 100 298 283 270 279 265 226 246 265 263 247 227 228 226 227 239 229 219 245 256 261 273 276 270 267 269 276 282 285 285 286 291 295 300 304 304 305 306 310
179 187 170 138 97 79 102 122 121 109 81 100 161 175 186 196 195 180 167 189 191 172 188 199 169 119 129 155 193 242 251 207 212 266 181 184 241 217 204 212 162 142 121 157 125 110 159 278 360 53 339 289 295 21 308 274 259 263 272 261 221 210 218 221 225 211 206 227 244 255 257 256 264 272 275 276 280 284 283 286 292 298 304 305 302 303 307 310
171 183 179 152 104 111 144 119 82 98 171 211 177 169 188 210 188 171 161 235 211 194 206 196 161 120 116 189 226 241 252 235 239 252 206 217 234 219 215 204 166 151 157 158 122 67 144 130 17 47 321 278 294 328 304 301 307 277 266 241 196 194 213 231 240 223 210 206 196 215 230 240 270 289 288 280 281 282 285 290 296 299 303 304 301 302 307 309
Height
1561 1561 1561 1561 1560 1560 1560 1560 1560 1560 1560 1560 1560 1560 1560 1560 1560 1559 1559 1559 1558 1558 1557 1556 1556 1555 1554 1554 1553 1553 1552 1550 1545 1537 1538 1550 1556 1554 1552 1549 1546 1543 1541 1541 1540 1540 1540 1540 1540 1540 1540 1539 1542 1544 1545 1547 1546 1548 1559 1570 1579 1588 1588 1589 1591 1589 1590 1590 1589 1588 1587 1586 1585 1584 1584 1584 1583 1583 1582 1582 1581 1581 1581 1580 1578 1577 1575 1574
1563 1563 1563 1563 1562 1562 1561 1561 1561 1561 1561 1562 1562 1562 1562 1561 1561 1561 1561 1560 1559 1559 1558 1557 1556 1556 1555 1554 1555 1553 1553 1552 1543 1537 1547 1558 1557 1555 1553 1550 1548 1546 1544 1542 1541 1541 1541 1541 1541 1541 1541 1542 1546 1547 1547 1551 1550 1556 1568 1575 1583 1590 1589 1589 1589 1588 1589 1588 1588 1588 1587 1586 1586 1585 1583 1583 1583 1582 1581 1580 1580 1579 1579 1578 1577 1576 1575 1572
1564 1565 1565 1564 1564 1563 1563 1562 1562 1562 1562 1563 1563 1563 1563 1563 1563 1562 1562 1561 1561 1560 1559 1558 1557 1557 1555 1555 1555 1553 1555 1550 1540 1545 1557 1559 1557 1556 1555 1552 1551 1548 1546 1544 1542 1542 1542 1542 1542 1542 1542 1545 1550 1549 1549 1553 1556 1562 1568 1577 1587 1588 1587 1588 1587 1587 1587 1587 1587 1586 1586 1585 1585 1584 1583 1583 1582 1581 1581 1580 1578 1577 1576 1576 1575 1574 1572 1570
1566 1566 1566 1566 1565 1565 1564 1564 1563 1563 1563 1564 1564 1564 1564 1564 1564 1563 1563 1562 1561 1561 1560 1559 1558 1557 1556 1555 1554 1555 1555 1549 1548 1560 1564 1560 1560 1558 1557 1556 1554 1551 1550 1547 1545 1544 1543 1543 1543 1542 1543 1549 1553 1550 1553 1558 1560 1566 1570 1577 1585 1585 1586 1587 1586 1587 1586 1586 1586 1585 1585 1584 1584 1584 1583 1583 1582 1582 1581 1581 1580 1578 1577 1575 1574 1573 1572 1570
1568 1568 1567 1567 1566 1566 1566 1565 1565 1565 1565 1565 1565 1565 1565 1565 1565 1564 1563 1562 1561 1562 1560 1559 1558 1557 1556 1555 1554 1554 1553 1557 1566 1570 1566 1563 1563 1561 1560 1559 1556 1556 1553 1550 1549 1547 1546 1546 1543 1543 1546 1553 1555 1554 1562 1565 1563 1571 1578 1580 1583 1584 1585 1586 1586 1587 1586 1586 1586 1585 1585 1584 1584 1583 1583 1583 1583 1582 1581 1581 1581 1579 1578 1576 1575 1573 1572 1570
1569 1569 1569 1568 1568 1567 1567 1567 1567 1566 1566 1566 1566 1566 1566 1566 1566 1566 1565 1563 1563 1562 1561 1560 1558 1557 1556 1555 1555 1553 1555 1569 1577 1572 1568 1567 1565 1564 1563 1561 1560 1559 1557 1555 1553 1550 1549 1547 1544 1547 1553 1558 1562 1563 1569 1569 1566 1572 1582 1584 1583 1585 1585 1586 1587 1587 1587 1587 1586 1586 1585 1585 1584 1583 1583 1583 1583 1582 1581 1581 1580 1579 1578 1577 1576 1574 1572 1570
1571 1571 1571 1570 1570 1569 1569 1569 1568 1568 1568 1568 1568 1568 1567 1568 1567 1567 1567 1566 1565 1564 1563 1562 1561 1561 1560 1558 1558 1555 1560 1574 1578 1573 1572 1569 1567 1567 1565 1564 1563 1561 1559 1556 1554 1553 1552 1550 1550 1555 1559 1562 1567 1570 1572 1572 1571 1573 1581 1586 1585 1586 1586 1587 1588 1587 1588 1587 1587 1587 1586 1585 1584 1584 1584 1583 1583 1582 1582 1581 1581 1580 1579 1578 1577 1575 1573 1571
1573 1573 1573 1572 1572 1572 1571 1571 1570 1570 1570 1570 1570 1569 1569 1569 1569 1569 1568 1567 1567 1565 1565 1563 1563 1563 1562 1562 1558 1556 1565 1575 1577 1575 1574 1572 1570 1569 1567 1566 1563 1562 1560 1557 1558 1556 1554 1554 1557 1560 1562 1567 1572 1574 1574 1575 1576 1578 1583 1587 1586 1587 1588 1588 1589 1588 1588 1588 1587 1587 1586 1585 1585 1585 1584 1583 1583 1583 1583 1582 1582 1581 1580 1579 1577 1575 1573 1571
1576 1576 1575 1575 1574 1574 1573 1573 1573 1573 1573 1572 1572 1571 1571 1571 1570 1570 1569 1569 1569 1568 1567 1565 1564 1563 1562 1563 1555 1558 1574 1580 1579 1577 1575 1574 1572 1571 1569 1567 1565 1564 1561 1561 1561 1558 1557 1560 1562 1562 1565 1571 1574 1575 1575 1575 1580 1584 1585 1587 1588 1589 1589 1589 1589 1588 1588 1588 1588 1587 1586 1585 1585 1585 1585 1584 1584 1584 1583 1583 1582 1581 1580 1579 1577 1576 1574 1572
1578 1578 1578 1577 1577 1577 1576 1576 1576 1575 1575 1574 1574 1574 1573 1573 1573 1572 1572 1571 1570 1570 1569 1567 1567 1564 1563 1561 1555 1567 1584 1583 1580 1580 1577 1576 1575 1573 1571 1568 1568 1566 1564 1563 1563 1561 1562 1564 1565 1565 1566 1572 1576 1577 1577 1577 1584 1587 1586 1588 1588 1589 1590 1590 1590 1589 1588 1588 1588 1588 1587 1586 1586 1586 1586 1585 1585 1584 1584 1583 1583 1582 1581 1580 1578 1576 1574 1573
1580 1580 1580 1580 1579 1579 1579 1578 1578 1577 1577 1577 1576 1576 1576 1575 1575 1574 1574 1573 1573 1572 1571 1569 1568 1567 1565 1561 1561 1577 1587 1582 1582 1581 1578 1579 1576 1575 1572 1571 1570 1568 1567 1565 1564 1565 1566 1567 1568 1567 1569 1574 1577 1579 1580 1582 1586 1587 1587 1588 1589 1590 1590 1590 1590 1589 1589 1589 1589 1588 1588 1587 1587 1588 1588 1587 1586 1585 1585 1584 1584 1583 1582 1581 1579 1577 1575 1574
1582 1582 1582 1581 1581 1581 1580 1580 1580 1579 1579 1578 1578 1578 1578 1577 1576 1576 1576 1575 1575 1573 1572 1570 1569 1569 1564 1562 1571 1584 1586 1583 1584 1581 1580 1580 1578 1577 1575 1573 1572 1571 1570 1568 1567 1569 1568 1569 1567 1566 1572 1576 1579 1582 1584 1586 1588 1587 1588 1588 1590 1590 1590 1591 1591 1590 1589 1589 1589 1588 1587 1588 1588 1589 1588 1587 1586 1586 1585 1585 1584 1583 1582 1581 1580 1578 1576 1574
1584 1584 1583 1583 1582 1582 1582 1582 1581 1581 1581 1580 1580 1580 1579 1579 1578 1578 1578 1577 1577 1575 1574 1572 1572 1570 1564 1569 1583 1587 1586 1585 1584 1583 1582 1580 1579 1579 1577 1576 1575 1574 1573 1570 1570 1571 1571 1573 1570 1568 1573 1576 1580 1583 1585 1587 1587 1587 1589 1589 1591 1590 1591 1593 1593 1590 1589 1589 1589 1587 1586 1588 1589 1588 1588 1587 1586 1585 1585 1585 1584 1583 1582 1581 1580 1578 1576 1575
1586 1586 1585 1585 1584 1584 1583 1583 1583 1582 1582 1581 1581 1581 1581 1580 1580 1580 1579 1578 1577 1576 1576 1574 1574 1571 1567 1578 1589 1587 1587 1587 1585 1585 1583 1581 1581 1580 1579 1579 1577 1576 1576 1573 1573 1574 1575 1576 1572 1571 1575 1578 1581 1583 1586 1588 1588 1589 1590 1592 1597 1594 1592 1595 1594 1591 1589 1589 1588 1586 1587 1589 1588 1588 1588 1587 1586 1585 1585 1585 1584 1583 1582 1581 1579 1578 1576 1575
1588 1588 1587 1586 1586 1585 1585 1584 1584 1584 1583 1583 1582 1582 1582 1581 1581 1581 1580 1580 1579 1578 1578 1576 1576 1573 1572 1582 1589 1589 1589 1587 1585 1585 1583 1583 1582 1581 1581 1580 1579 1579 1578 1577 1576 1577 1577 1575 1572 1574 1579 1580 1582 1584 1587 1588 1590 1594 1590 1592 1602 1600 1596 1597 1596 1595 1594 1591 1589 1586 1587 1589 1588 1588 1587 1586 1585 1585 1584 1584 1584 1583 1582 1580 1579 1578 1576 1575
1590 1590 1589 1588 1587 1586 1586 1585 1585 1585 1584 1584 1583 1583 1583 1582 1583 1582 1581 1582 1580 1581 1580 1577 1577 1574 1576 1587 1591 1590 1589 1587 1586 1586 1585 1584 1582 1582 1582 1580 1581 1580 1579 1580 1578 1579 1578 1574 1574 1579 1583 1584 1586 1588 1587 1588 1593 1598 1596 1596 1603 1603 1599 1597 1595 1597 1598 1594 1590 1589 1590 1590 1588 1587 1586 1586 1585 1585 1584 1584 1583 1582 1581 1580 1578 1577 1576 1574
1591 1591 1590 1590 1588 1588 1587 1587 1587 1586 1586 1586 1585 1585 1584 1583 1583 1582 1583 1582 1582 1583 1580 1579 1578 1575 1581 1591 1593 1590 1590 1589 1588 1587 1586 1585 1583 1583 1582 1582 1582 1581 1581 1581 1579 1580 1578 1576 1579 1585 1588 1589 1592 1589 1584 1589 1596 1600 1603 1603 1606 1608 1604 1598 1595 1597 1597 1595 1594 1593 1591 1590 1589 1588 1586 1586 1585 1584 1584 1583 1583 1582 1581 1580 1578 1577 1575 1574
1593 1592 1592 1591 1590 1590 1589 1589 1589 1588 1589 1588 1587 1587 1585 1585 1585 1584 1584 1583 1583 1582 1580 1581 1579 1580 1590 1596 1594 1594 1593 1591 1589 1588 1587 1586 1585 1584 1584 1583 1582 1583 1582 1581 1582 1581 1579 1581 1584 1586 1589 1590 1595 1595 1590 1597 1605 1604 1607 1607 1607 1609 1606 1602 1600 1599 1599 1597 1596 1595 1591 1590 1589 1588 1586 1585 1585 1584 1584 1583 1582 1582 1581 1580 1578 1577 1575 1574
1594 1594 1593 1593 1592 1592 1591 1591 1590 1590 1590 1590 1590 1589 1588 1588 1586 1585 1585 1583 1584 1586 1589 1591 1587 1593 1602 1600 1597 1597 1595 1592 1591 1589 1588 1588 1586 1586 1585 1584 1584 1583 1582 1584 1586 1586 1585 1586 1587 1590 1595 1599 1605 1610 1607 1609 1612 1609 1612 1612 1610 1609 1605 1604 1603 1602 1603 1600 1597 1598 1596 1593 1591 1589 1587 1586 1586 1585 1584 1584 1583 1582 1581 1580 1578 1577 1576 1574
1595 1595 1595 1594 1594 1593 1593 1592 1591 1591 1591 1590 1590 1590 1590 1589 1587 1590 1589 1586 1591 1596 1600 1601 1598 1601 1604 1601 1599 1597 1595 1594 1593 1591 1589 1588 1587 1587 1586 1585 1585 1583 1586 1590 1590 1591 1589 1589 1598 1605 1609 1612 1613 1616 1615 1615 1616 1614 1614 1613 1612 1612 1606 1604 1605 1604 1605 1600 1597 1601 1599 1595 1592 1590 1589 1587 1586 1586 1584 1584 1583 1582 1581 1579 1578 1577 1575 1574
1597 1596 1596 1595 1594 1594 1594 1593 1593 1592 1592 1591 1590 1590 1590 1589 1589 1594 1594 1593 1599 1602 1602 1603 1602 1602 1602 1601 1600 1598 1597 1595 1593 1592 1591 1590 1588 1588 1589 1588 1586 1588 1592 1594 1593 1593 1589 1593 1609 1615 1614 1615 1615 1616 1617 1616 1616 1615 1613 1609 1609 1612 1607 1604 1606 1605 1605 1600 1597 1601 1597 1591 1592 1591 1590 1588 1587 1586 1585 1584 1583 1581 1580 1579 1578 1577 1575 1574
1598 1597 1596 1596 1595 1595 1594 1594 1594 1593 1593 1593 1592 1591 1591 1590 1591 1594 1594 1596 1602 1603 1603 1604 1603 1603 1603 1602 1601 1601 1598 1594 1594 1593 1592 1591 1589 1589 1592 1592 1592 1596 1596 1595 1594 1593 1593 1603 1615 1615 1615 1616 1615 1616 1616 1614 1615 1613 1611 1607 1607 1611 1607 1603 1605 1606 1605 1601 1598 1601 1596 1590 1592 1592 1590 1589 1588 1587 1586 1585 1583 1582 1580 1579 1578 1577 1575 1574
1598 1598 1597 1597 1596 1596 1595 1595 1594 1594 1594 1594 1594 1593 1592 1593 1594 1594 1593 1596 1601 1604 1604 1604 1603 1604 1603 1603 1603 1602 1598 1597 1598 1596 1595 1593 1592 1592 1595 1596 1598 1601 1600 1598 1595 1594 1600 1611 1615 1615 1616 1615 1614 1616 1615 1612 1612 1612 1610 1606 1608 1612 1609 1602 1603 1606 1606 1604 1603 1604 1598 1591 1592 1592 1590 1589 1588 1587 1586 1585 1584 1583 1581 1580 1579 1577 1575 1573
1599 1599 1598 1598 1597 1597 1596 1596 1595 1595 1595 1595 1595 1594 1594 1594 1595 1595 1595 1596 1601 1605 1605 1605 1605 1605 1604 1604 1604 1602 1601 1602 1603 1601 1598 1596 1595 1596 1597 1600 1601 1604 1606 1606 1601 1601 1610 1615 1615 1615 1615 1614 1615 1615 1615 1611 1608 1611 1610 1609 1610 1614 1614 1609 1607 1608 1606 1605 1606 1602 1594 1591 1592 1591 1589 1589 1587 1587 1586 1585 1584 1583 1582 1581 1579 1578 1576 1574
1600 1599 1599 1598 1598 1598 1597 1596 1596 1596 1596 1596 1596 1595 1595 1595 1596 1596 1596 1598 1603 1606 1606 1606 1606 1606 1606 1606 1604 1604 1604 1603 1605 1604 1601 1599 1598 1598 1600 1601 1602 1605 1610 1609 1606 1607 1614 1616 1615 1615 1614 1615 1614 1614 1617 1614 1608 1608 1609 1611 1613 1614 1615 1612 1613 1610 1598 1597 1605 1603 1591 1588 1592 1592 1590 1590 1589 1587 1586 1585 1584 1583 1582 1581 1579 1578 1576 1575
1601 1600 1600 1599 1599 1598 1597 1597 1596 1596 1596 1596 1597 1597 1596 1596 1597 1596 1597 1601 1607 1610 1609 1607 1609 1609 1608 1608 1605 1604 1604 1605 1607 1607 1604 1602 1601 1600 1602 1603 1604 1606 1609 1610 1608 1610 1615 1616 1615 1615 1614 1614 1612 1613 1617 1617 1612 1606 1608 1613 1614 1614 1613 1612 1615 1607 1592 1595 1607 1607 1595 1589 1591 1590 1589 1591 1590 1588 1586 1584 1584 1583 1582 1581 1580 1578 1576 1575
1601 1601 1600 1599 1599 1598 1598 1597 1597 1597 1597 1597 1597 1597 1597 1597 1597 1597 1597 1603 1611 1614 1613 1611 1612 1612 1612 1611 1607 1605 1608 1609 1609 1608 1606 1604 1603 1602 1603 1606 1607 1607 1610 1608 1606 1611 1616 1615 1615 1615 1614 1613 1612 1613 1615 1618 1613 1606 1611 1615 1613 1614 1612 1612 1613 1604 1601 1606 1606 1608 1606 1597 1592 1589 1590 1593 1589 1586 1586 1585 1584 1583 1582 1581 1579 1578 1577 1575
1602 1601 1601 1600 1600 1599 1599 1598 1597 1597 1596 1597 1597 1597 1597 1597 1597 1597 1598 1608 1618 1618 1616 1615 1615 1615 1614 1614 1611 1610 1613 1613 1610 1610 1608 1605 1605 1604 1603 1608 1609 1609 1611 1606 1605 1614 1618 1615 1616 1615 1614 1613 1613 1614 1615 1616 1612 1609 1614 1615 1614 1615 1613 1615 1613 1607 1614 1609 1595 1604 1611 1598 1590 1589 1591 1592 1587 1585 1586 1586 1584 1582 1581 1580 1579 1578 1577 1575
1602 1602 1601 1601 1600 1599 1599 1598 1597 1597 1596 1597 1596 1597 1597 1596 1597 1598 1600 1613 1622 1620 1618 1618 1616 1616 1616 1615 1614 1614 1615 1614 1613 1614 1611 1607 1607 1605 1606 1608 1609 1609 1609 1606 1608 1616 1618 1617 1618 1616 1616 1616 1614 1614 1614 1614 1613 1612 1614 1614 1614 1616 1615 1617 1613 1608 1612 1603 1593 1606 1612 1599 1589 1587 1589 1589 1587 1587 1587 1586 1584 1582 1580 1579 1579 1577 1576 1575
1603 1602 1602 1601 1601 1600 1599 1598 1597 1597 1596 1596 1596 1597 1597 1597 1599 1601 1606 1618 1623 1621 1620 1619 1618 1620 1618 1616 1616 1616 1617 1616 1616 1615 1612 1611 1610 1607 1607 1608 1609 1610 1611 1610 1612 1617 1618 1617 1618 1618 1617 1617 1615 1613 1613 1613 1613 1612 1614 1615 1614 1615 1617 1618 1618 1613 1602 1593 1598 1610 1614 1607 1593 1586 1589 1590 1588 1589 1588 1587 1584 1581 1580 1579 1578 1577 1575 1574
1603 1603 1602 1602 1601 1600 1599 1598 1597 1597 1596 1596 1596 1597 1597 1598 1600 1604 1614 1623 1623 1621 1621 1621 1623 1624 1622 1621 1620 1620 1619 1618 1618 1617 1614 1615 1612 1608 1608 1610 1612 1610 1609 1613 1614 1616 1618 1616 1617 1619 1617 1617 1614 1612 1612 1612 1614 1613 1613 1612 1606 1606 1610 1606 1606 1606 1592 1587 1601 1612 1616 1614 1597 1585 1588 1589 1588 1590 1588 1586 1584 1581 1580 1579 1577 1576 1575 1573
1604 1603 1603 1602 1601 1600 1599 1598 1598 1597 1596 1596 1596 1597 1597 1599 1604 1613 1622 1624 1622 1623 1625 1625 1626 1626 1626 1626 1625 1625 1623 1620 1620 1621 1621 1620 1618 1618 1621 1625 1625 1613 1608 1617 1618 1616 1617 1618 1620 1618 1617 1619 1613 1611 1611 1610 1612 1611 1611 1610 1596 1592 1596 1591 1596 1604 1597 1593 1605 1615 1615 1608 1595 1585 1585 1587 1587 1587 1586 1585 1584 1582 1580 1579 1577 1575 1574 1573
1604 1604 1603 1602 1601 1600 1599 1598 1597 1596 1596 1596 1596 1598 1598 1599 1611 1626 1630 1624 1623 1627 1629 1629 1628 1628 1627 1625 1625 1628 1626 1624 1623 1623 1623 1624 1624 1628 1631 1632 1633 1623 1617 1623 1625 1619 1615 1616 1621 1617 1617 1619 1616 1617 1615 1612 1614 1613 1616 1614 1601 1598 1594 1587 1603 1613 1602 1596 1608 1621 1614 1597 1588 1585 1585 1587 1585 1585 1585 1584 1583 1582 1581 1579 1577 1575 1573 1572
1605 1604 1603 1602 1601 1600 1599 1598 1597 1596 1596 1596 1597 1598 1598 1604 1620 1632 1629 1626 1629 1631 1631 1631 1629 1628 1627 1627 1629 1631 1627 1626 1627 1625 1624 1626 1627 1631 1632 1632 1633 1631 1627 1627 1630 1629 1618 1613 1619 1619 1619 1621 1620 1623 1622 1621 1622 1621 1626 1622 1613 1617 1608 1596 1607 1608 1603 1609 1612 1611 1603 1591 1586 1584 1584 1586 1584 1584 1584 1582 1583 1581 1581 1579 1576 1575 1573 1571
1605 1604 1604 1603 1601 1600 1599 1598 1597 1596 1595 1596 1597 1598 1602 1613 1626 1628 1624 1627 1632 1630 1631 1632 1630 1626 1627 1630 1633 1633 1629 1626 1629 1629 1628 1630 1632 1635 1636 1635 1635 1634 1630 1625 1630 1636 1626 1618 1623 1623 1623 1624 1623 1624 1625 1623 1621 1622 1628 1623 1620 1629 1625 1623 1631 1630 1632 1630 1611 1600 1596 1591 1590 1584 1584 1586 1582 1583 1583 1581 1582 1580 1579 1578 1575 1575 1573 1570
1605 1604 1604 1603 1602 1601 1599 1598 1597 1596 1596 1596 1597 1603 1612 1620 1625 1625 1625 1628 1630 1629 1629 1629 1629 1626 1626 1629 1632 1632 1632 1629 1629 1629 1630 1635 1638 1638 1639 1639 1638 1637 1633 1631 1635 1637 1627 1620 1624 1625 1624 1625 1624 1624 1625 1622 1618 1620 1624 1623 1628 1635 1631 1631 1638 1648 1650 1625 1602 1604 1598 1589 1589 1582 1583 1586 1581 1582 1582 1579 1580 1579 1577 1577 1575 1575 1573 1571
1605 1604 1604 1603 1602 1600 1599 1599 1597 1596 1596 1595 1598 1611 1624 1627 1627 1629 1630 1629 1629 1631 1628 1625 1629 1631 1628 1629 1630 1630 1631 1630 1630 1629 1630 1636 1637 1637 1640 1640 1639 1640 1638 1637 1639 1640 1635 1624 1624 1627 1624 1624 1626 1625 1626 1625 1622 1621 1622 1626 1632 1633 1632 1631 1626 1631 1633 1611 1600 1610 1605 1595 1591 1580 1580 1586 1582 1581 1581 1579 1579 1578 1577 1577 1576 1575 1573 1571
1605 1604 1604 1603 1602 1601 1600 1598 1597 1597 1595 1598 1608 1621 1628 1628 1628 1630 1630 1629 1630 1631 1628 1625 1631 1637 1634 1630 1631 1634 1632 1627 1629 1632 1632 1635 1635 1636 1641 1640 1639 1641 1640 1639 1637 1641 1641 1628 1622 1628 1627 1625 1628 1625 1624 1626 1626 1623 1625 1629 1630 1624 1626 1631 1625 1618 1619 1615 1609 1610 1611 1607 1596 1582 1579 1581 1580 1579 1579 1579 1579 1577 1577 1576 1575 1574 1572 1571
1605 1604 1603 1603 1602 1601 1600 1598 1598 1597 1594 1601 1615 1622 1626 1629 1630 1630 1630 1630 1631 1629 1627 1628 1632 1637 1638 1635 1633 1636 1636 1631 1633 1635 1633 1635 1636 1637 1640 1640 1640 1641 1639 1640 1639 1641 1644 1633 1621 1626 1630 1627 1626 1626 1627 1628 1628 1627 1627 1630 1630 1629 1630 1633 1635 1632 1626 1626 1623 1612 1603 1593 1586 1584 1579 1575 1578 1579 1578 1579 1578 1577 1577 1576 1575 1573 1572 1570
1605 1604 1603 1603 1602 1601 1601 1599 1598 1598 1600 1610 1620 1623 1627 1630 1630 1630 1630 1630 1631 1629 1628 1631 1632 1633 1636 1639 1637 1638 1639 1637 1637 1636 1635 1638 1638 1637 1640 1641 1640 1641 1640 1641 1641 1641 1645 1639 1626 1624 1628 1627 1625 1629 1632 1631 1632 1629 1628 1631 1630 1634 1638 1636 1640 1646 1637 1631 1637 1631 1606 1582 1578 1584 1579 1575 1579 1579 1579 1579 1577 1577 1576 1575 1574 1572 1571 1570
1605 1605 1604 1603 1602 1602 1600 1599 1602 1607 1613 1620 1625 1626 1629 1629 1629 1631 1630 1630 1631 1630 1630 1632 1632 1632 1634 1636 1638 1640 1639 1639 1639 1638 1637 1639 1638 1637 1641 1641 1641 1642 1640 1640 1642 1642 1643 1643 1637 1630 1627 1626 1629 1635 1636 1635 1636 1633 1631 1633 1631 1633 1637 1630 1631 1646 1648 1638 1640 1641 1619 1589 1578 1581 1578 1578 1579 1578 1580 1579 1576 1577 1575 1574 1573 1571 1570 1568
1605 1605 1604 1603 1603 1602 1601 1604 1611 1616 1619 1623 1625 1627 1629 1629 1629 1631 1630 1630 1631 1630 1631 1633 1633 1635 1637 1636 1638 1642 1640 1638 1639 1639 1638 1639 1639 1638 1641 1642 1642 1642 1641 1641 1643 1644 1644 1645 1643 1634 1630 1631 1633 1636 1636 1634 1637 1636 1634 1634 1634 1635 1636 1629 1625 1636 1647 1646 1646 1652 1635 1595 1576 1579 1579 1578 1578 1578 1579 1578 1576 1576 1574 1572 1571 1569 1569 1567
1605 1605 1605 1604 1604 1603 1602 1608 1616 1621 1624 1626 1627 1628 1629 1629 1630 1631 1631 1631 1631 1631 1631 1633 1634 1635 1637 1639 1640 1642 1640 1638 1639 1640 1639 1641 1641 1640 1641 1642 1642 1642 1642 1643 1643 1644 1644 1645 1641 1630 1628 1634 1636 1636 1638 1636 1636 1635 1633 1634 1634 1633 1634 1635 1635 1636 1641 1643 1644 1648 1629 1587 1571 1580 1578 1576 1578 1577 1576 1577 1576 1574 1572 1571 1570 1568 1567 1565
1606 1605 1605 1604 1604 1603 1603 1606 1614 1622 1627 1628 1628 1629 1629 1630 1630 1631 1631 1631 1631 1632 1632 1633 1636 1634 1636 1640 1640 1642 1642 1637 1637 1641 1642 1641 1641 1640 1641 1642 1642 1642 1642 1642 1644 1643 1642 1644 1642 1629 1621 1623 1625 1627 1629 1632 1634 1631 1631 1634 1633 1634 1636 1637 1641 1642 1638 1634 1635 1633 1611 1579 1572 1579 1576 1575 1577 1575 1574 1575 1574 1573 1571 1569 1567 1566 1565 1563
1606 1605 1605 1605 1604 1603 1604 1607 1611 1619 1627 1627 1627 1630 1629 1630 1631 1631 1632 1632 1632 1633 1632 1634 1636 1635 1638 1641 1640 1644 1646 1639 1637 1641 1643 1642 1642 1641 1641 1641 1642 1643 1642 1643 1644 1643 1642 1646 1643 1632 1624 1621 1618 1617 1619 1625 1630 1630 1630 1633 1631 1634 1635 1631 1638 1641 1632 1631 1637 1624 1597 1575 1571 1574 1574 1576 1576 1573 1573 1572 1571 1571 1569 1566 1566 1564 1562 1561
1606 1606 1605 1605 1605 1604 1606 1609 1609 1614 1621 1623 1624 1628 1630 1630 1632 1632 1632 1632 1633 1633 1633 1634 1636 1636 1638 1640 1639 1641 1646 1645 1643 1642 1642 1641 1640 1641 1641 1641 1641 1642 1642 1643 1643 1644 1646 1647 1643 1636 1630 1625 1620 1618 1621 1627 1628 1626 1628 1630 1630 1632 1632 1631 1637 1635 1628 1633 1633 1611 1593 1583 1574 1570 1572 1573 1573 1572 1571 1568 1568 1568 1566 1565 1564 1561 1560 1559
1607 1607 1608 1607 1606 1606 1608 1611 1611 1612 1616 1618 1619 1625 1629 1630 1632 1633 1632 1633 1634 1634 1635 1635 1636 1635 1635 1637 1637 1638 1644 1648 1645 1642 1641 1640 1640 1641 1641 1641 1642 1642 1642 1643 1642 1644 1645 1642 1642 1642 1635 1628 1626 1624 1626 1630 1628 1624 1624 1626 1627 1629 1631 1631 1629 1624 1626 1628 1612 1596 1599 1597 1578 1569 1572 1572 1570 1569 1567 1566 1565 1564 1563 1562 1561 1559 1558 1557
1607 1608 1611 1610 1609 1609 1610 1612 1613 1614 1616 1618 1621 1626 1628 1629 1631 1630 1631 1634 1634 1634 1635 1634 1635 1634 1635 1635 1634 1635 1640 1642 1640 1640 1640 1640 1641 1641 1640 1642 1643 1641 1642 1643 1642 1644 1644 1640 1642 1644 1636 1632 1632 1628 1627 1630 1628 1624 1624 1624 1624 1626 1627 1626 1621 1620 1624 1616 1596 1591 1601 1596 1579 1573 1572 1569 1568 1567 1564 1563 1562 1561 1560 1559 1558 1557 1555 1554
1608 1609 1611 1611 1611 1612 1613 1613 1614 1615 1616 1619 1623 1625 1626 1626 1627 1629 1631 1633 1634 1635 1635 1632 1631 1633 1635 1636 1634 1634 1636 1635 1633 1636 1638 1639 1641 1640 1638 1639 1641 1642 1643 1643 1643 1644 1643 1641 1643 1645 1638 1631 1629 1627 1627 1630 1628 1622 1620 1620 1621 1622 1622 1621 1617 1617 1619 1610 1598 1596 1600 1592 1578 1572 1569 1565 1565 1566 1563 1561 1560 1558 1557 1556 1555 1554 1553 1552
1609 1609 1610 1611 1612 1614 1615 1615 1615 1616 1617 1619 1620 1623 1626 1625 1625 1628 1630 1629 1629 1633 1635 1631 1631 1633 1635 1636 1635 1634 1634 1634 1633 1635 1637 1638 1638 1639 1638 1635 1638 1643 1643 1643 1645 1645 1642 1640 1643 1646 1637 1624 1622 1625 1624 1627 1626 1619 1615 1615 1617 1619 1620 1619 1617 1616 1617 1611 1601 1601 1605 1594 1573 1565 1567 1565 1562 1563 1561 1558 1557 1556 1555 1554 1553 1552 1551 1549
1608 1609 1609 1610 1612 1615 1616 1616 1617 1616 1617 1619 1618 1621 1624 1623 1624 1625 1626 1627 1627 1629 1631 1629 1630 1633 1635 1636 1636 1633 1634 1634 1634 1634 1635 1636 1635 1636 1636 1635 1637 1641 1642 1644 1645 1644 1644 1642 1642 1645 1632 1615 1618 1626 1622 1623 1624 1618 1609 1606 1610 1615 1614 1611 1610 1608 1607 1604 1601 1605 1605 1588 1566 1561 1566 1563 1560 1561 1558 1555 1555 1553 1552 1552 1550 1549 1549 1547
1608 1609 1609 1609 1612 1616 1616 1617 1618 1616 1616 1616 1617 1619 1621 1620 1622 1623 1623 1626 1627 1626 1628 1628 1629 1631 1633 1634 1634 1632 1633 1633 1634 1634 1634 1635 1635 1635 1635 1635 1636 1637 1639 1643 1643 1644 1646 1642 1641 1645 1630 1610 1616 1626 1621 1615 1605 1592 1587 1587 1593 1604 1606 1603 1601 1599 1597 1597 1597 1595 1584 1569 1562 1564 1564 1560 1558 1558 1555 1553 1553 1551 1550 1550 1548 1547 1547 1545